VU2EXP-13 Weather Reports


time (UTC)temp
F
wind
direction
speed
knots
gust
knots
rain 1hr
in
rain 24hr
in
rain mn
in
humidity
%
barometer
mb
20260507191110 91 0.0 0.0 0.00 0.00 0.00 42 991.3
20260507185610 91 0.0 0.0 0.00 0.00 0.00 42 991.3
20260507184110 92 0.0 0.0 0.00 0.00 0.00 41 991.5
20260507182610 92 0.0 0.0 0.00 0.00 0.00 41 991.7
20260507181110 92 0.0 0.0 0.00 0.00 0.00 41 991.7
20260507175610 92 0.0 0.0 0.00 0.00 0.00 41 991.8
20260507174110 93 0.0 0.0 0.00 0.00 0.00 41 991.8
20260507172610 93 0.0 0.0 0.00 0.00 0.00 43 991.5
20260507171116 93 0.0 0.0 0.00 0.00 0.00 44 991.6
20260507165611 93 0.0 0.0 0.00 0.00 0.00 45 991.7
20260507164109 94 0.0 0.0 0.00 0.00 0.00 47 991.6
20260507162609 94 0.0 0.0 0.00 0.00 0.00 47 991.4
20260507161109 94 0.0 0.0 0.00 0.00 0.00 46 991.2
20260507155609 95 0.0 0.0 0.00 0.00 0.00 45 991.0
20260507154109 95 0.0 0.0 0.00 0.00 0.00 44 990.8
20260507152608 95 0.0 0.0 0.00 0.00 0.00 42 990.6
20260507151111 96 0.0 0.0 0.00 0.00 0.00 41 990.4
20260507145610 96 0.0 0.0 0.00 0.00 0.00 41 990.2
20260507144109 97 0.0 0.0 0.00 0.00 0.00 40 990.0
20260507142608 97 0.0 0.0 0.00 0.00 0.00 38 989.7
20260507141108 98 0.0 0.0 0.00 0.00 0.00 37 989.5
20260507135608 98 0.0 0.0 0.00 0.00 0.00 36 989.3
20260507134108 99 0.0 0.0 0.00 0.00 0.00 34 989.1
20260507132608 100 0.0 0.0 0.00 0.00 0.00 33 988.8
20260507131108 100 0.0 0.0 0.00 0.00 0.00 34 988.7
20260507125608 101 0.0 0.0 0.00 0.00 0.00 34 988.5
20260507124107 101 0.0 0.0 0.00 0.00 0.00 32 988.4
20260507122607 102 0.0 0.0 0.00 0.00 0.00 31 988.2
20260507121107 104 0.0 0.0 0.00 0.00 0.00 29 988.1
20260507115607 105 0.0 0.0 0.00 0.00 0.00 26 987.9
20260507114108 107 0.0 0.0 0.00 0.00 0.00 19 987.8
20260507112607 105 0.0 0.0 0.00 0.00 0.00 16 987.8
20260507111108 109 0.0 0.0 0.00 0.00 0.00 15 988.0
20260507105607 109 0.0 0.0 0.00 0.00 0.00 15 988.1
20260507104106 109 0.0 0.0 0.00 0.00 0.00 15 988.3
20260507102606 110 0.0 0.0 0.00 0.00 0.00 15 988.3
20260507101107 109 0.0 0.0 0.00 0.00 0.00 15 988.4
20260507095606 110 0.0 0.0 0.00 0.00 0.00 15 988.6
20260507094105 110 0.0 0.0 0.00 0.00 0.00 15 988.9
20260507092606 110 0.0 0.0 0.00 0.00 0.00 14 989.1
20260507091105 110 0.0 0.0 0.00 0.00 0.00 14 989.3
20260507085605 110 0.0 0.0 0.00 0.00 0.00 16 989.5
20260507084105 109 0.0 0.0 0.00 0.00 0.00 16 989.8
20260507082605 108 0.0 0.0 0.00 0.00 0.00 17 990.1
20260507081105 107 0.0 0.0 0.00 0.00 0.00 18 990.3
20260507075605 106 0.0 0.0 0.00 0.00 0.00 20 990.6
20260507074108 105 0.0 0.0 0.00 0.00 0.00 20 990.8
20260507072605 103 0.0 0.0 0.00 0.00 0.00 21 991.0
20260507071104 102 0.0 0.0 0.00 0.00 0.00 23 991.3
20260507065604 101 0.0 0.0 0.00 0.00 0.00 25 991.5
20260507064104 100 0.0 0.0 0.00 0.00 0.00 27 991.7
20260507062604 99 0.0 0.0 0.00 0.00 0.00 27 991.9
20260507061104 98 0.0 0.0 0.00 0.00 0.00 28 992.0
20260507055604 97 0.0 0.0 0.00 0.00 0.00 32 992.2
20260507054104 97 0.0 0.0 0.00 0.00 0.00 33 992.4
20260507052604 96 0.0 0.0 0.00 0.00 0.00 38 992.5
20260507051104 95 0.0 0.0 0.00 0.00 0.00 41 992.6
20260507045604 95 0.0 0.0 0.00 0.00 0.00 44 992.7
20260507044104 94 0.0 0.0 0.00 0.00 0.00 46 992.7
20260507042603 93 0.0 0.0 0.00 0.00 0.00 49 992.8
20260507041103 92 0.0 0.0 0.00 0.00 0.00 53 992.8
20260507035603 91 0.0 0.0 0.00 0.00 0.00 55 992.7
20260507034103 90 0.0 0.0 0.00 0.00 0.00 57 992.7
20260507032603 89 0.0 0.0 0.00 0.00 0.00 58 992.7
20260507031103 88 0.0 0.0 0.00 0.00 0.00 59 992.6
20260507025603 88 0.0 0.0 0.00 0.00 0.00 60 992.5
20260507024102 87 0.0 0.0 0.00 0.00 0.00 61 992.4
20260507022603 87 0.0 0.0 0.00 0.00 0.00 61 992.3
20260507021102 86 0.0 0.0 0.00 0.00 0.00 62 992.0
20260507015602 86 0.0 0.0 0.00 0.00 0.00 61 991.9
20260507014102 86 0.0 0.0 0.00 0.00 0.00 61 991.7
20260507012602 86 0.0 0.0 0.00 0.00 0.00 61 991.6
20260507011102 86 0.0 0.0 0.00 0.00 0.00 62 991.5
20260507005601 85 0.0 0.0 0.00 0.00 0.00 63 991.4
20260507004101 86 0.0 0.0 0.00 0.00 0.00 63 991.3
20260507002602 86 0.0 0.0 0.00 0.00 0.00 64 990.9
20260507001101 86 0.0 0.0 0.00 0.00 0.00 64 990.8
20260506235601 86 0.0 0.0 0.00 0.00 0.00 64 990.5
20260506234101 86 0.0 0.0 0.00 0.00 0.00 64 990.3
20260506232600 86 0.0 0.0 0.00 0.00 0.00 63 990.0
20260506231101 87 0.0 0.0 0.00 0.00 0.00 63 989.7
20260506225601 87 0.0 0.0 0.00 0.00 0.00 62 989.3
20260506224100 87 0.0 0.0 0.00 0.00 0.00 63 989.4
20260506222600 87 0.0 0.0 0.00 0.00 0.00 62 989.6
20260506221100 87 0.0 0.0 0.00 0.00 0.00 62 989.7
20260506215600 87 0.0 0.0 0.00 0.00 0.00 62 989.6
20260506214100 87 0.0 0.0 0.00 0.00 0.00 61 989.6
20260506212600 88 0.0 0.0 0.00 0.00 0.00 59 989.6
20260506211059 88 0.0 0.0 0.00 0.00 0.00 60 989.6
20260506205559 88 0.0 0.0 0.00 0.00 0.00 59 989.6
20260506204059 88 0.0 0.0 0.00 0.00 0.00 59 989.7
20260506202559 88 0.0 0.0 0.00 0.00 0.00 58 989.9
20260506201059 89 0.0 0.0 0.00 0.00 0.00 58 989.9
20260506195559 89 0.0 0.0 0.00 0.00 0.00 57 990.1
20260506194059 89 0.0 0.0 0.00 0.00 0.00 58 990.1
20260506192559 89 0.0 0.0 0.00 0.00 0.00 57 990.2